Theta_e
280 280 279 279 279 279 278 278 278 278 278 279 279 279 278 278 278 278 278 278 278 278 279 278 280 281 282 282 282 283 284 285 283 286 287 284 282 283 284 286 287 288 289
280 279 280 279 278 278 278 278 278 278 278 278 279 278 278 278 278 277 277 277 277 277 278 279 279 281 279 280 281 281 282 284 283 282 285 285 282 283 283 283 285 287 286
280 279 279 278 277 277 277 277 278 277 277 277 278 277 277 277 277 277 277 277 277 277 278 278 278 279 279 280 280 281 281 283 284 283 283 284 282 281 282 283 283 284 285
279 278 278 277 277 277 277 276 276 276 276 275 275 275 275 276 276 276 276 276 277 277 278 278 278 278 278 279 280 280 281 281 282 282 282 282 283 282 281 281 280 282 282
278 278 277 277 276 276 275 275 274 274 274 273 273 273 273 274 275 275 275 275 276 276 277 278 278 278 281 281 280 280 280 280 281 281 281 281 282 278 280 282 282 283 282
276 275 275 275 275 274 273 272 272 272 271 271 271 270 270 272 274 276 275 274 274 274 274 275 276 277 278 280 281 282 282 280 280 280 280 280 281 282 282 282 281 281 279
273 271 271 272 271 271 270 270 270 269 269 268 268 268 268 268 272 274 274 272 271 271 271 272 273 274 275 276 278 280 280 282 283 281 280 281 281 283 283 282 282 283 282
271 270 270 270 268 268 268 267 267 267 266 266 266 266 266 267 271 272 273 271 270 270 270 270 271 271 272 273 273 273 274 275 276 278 279 280 282 284 285 285 284 284 284
271 271 270 268 265 266 263 264 265 265 264 264 265 264 263 264 269 271 271 269 269 268 269 270 270 270 273 275 273 271 272 273 277 279 280 282 284 286 287 285 283 282 281
271 270 268 267 262 262 263 263 263 262 264 264 264 263 263 262 267 269 270 268 267 268 269 270 272 272 274 275 273 271 269 271 273 273 275 277 279 280 284 285 284 282 281
268 267 265 265 262 261 261 262 261 260 262 260 261 261 261 263 263 269 271 269 268 268 268 269 270 273 274 275 276 272 271 273 273 273 273 274 276 278 280 282 283 284 283
265 263 262 258 259 261 255 258 258 258 258 258 258 259 261 263 266 268 271 272 273 269 268 269 270 273 275 276 276 277 278 277 274 271 270 271 273 275 279 281 283 284 285
261 256 254 257 259 259 255 258 258 256 256 258 259 259 260 263 264 269 271 272 273 271 271 272 276 276 277 276 276 276 274 271 269 268 267 269 271 275 278 281 282 283 283
258 256 258 256 257 257 260 260 258 257 257 259 259 259 262 265 267 268 268 269 272 273 273 272 273 275 276 275 273 273 272 271 270 269 269 270 271 272 273 276 280 281 280
258 259 257 256 256 257 259 259 260 261 262 263 265 266 265 265 267 272 273 271 272 273 274 271 270 270 270 271 268 268 268 268 267 268 268 269 270 270 271 275 280 280 279
258 259 257 257 257 258 258 258 263 267 269 270 271 270 268 271 272 273 274 275 275 274 268 263 263 264 265 266 266 267 269 269 268 269 268 268 269 270 272 275 280 280 279
255 257 256 257 257 256 256 256 255 260 266 266 268 269 270 271 271 272 273 272 269 268 258 260 261 262 263 263 264 264 266 269 270 269 269 269 271 271 272 276 277 279 279
254 255 253 255 254 253 254 255 256 255 255 257 262 265 268 269 271 270 270 265 258 260 258 258 259 260 261 262 263 265 267 268 268 268 269 270 271 272 275 276 277 277 277
253 255 255 252 253 255 255 255 255 256 256 256 257 261 262 266 268 267 266 256 257 257 258 258 259 259 260 261 262 264 266 268 268 268 268 269 271 272 276 277 277 277 277
251 253 254 251 251 251 254 253 255 255 255 255 256 257 259 261 257 257 258 258 258 258 259 259 259 259 260 261 262 263 265 267 269 268 268 270 271 274 274 276 277 276 276
249 248 252 250 248 249 250 251 254 253 254 254 255 258 266 258 256 256 257 258 258 258 259 260 260 260 261 262 263 263 264 265 267 269 272 272 273 274 276 276 275 276 275
249 248 246 246 249 250 250 254 254 252 252 253 255 256 263 256 255 255 256 256 257 259 260 260 260 261 262 262 263 263 263 264 265 266 268 269 270 272 272 273 273 274 273
249 247 247 247 248 250 252 252 251 250 250 251 252 253 253 253 253 254 254 255 256 257 259 260 260 261 262 263 265 265 264 264 265 266 266 266 265 264 264 266 267 268 269
247 248 249 248 249 251 252 253 251 251 250 250 248 249 252 252 252 252 253 254 255 256 257 258 259 260 260 262 265 267 266 267 266 266 266 265 265 266 266 266 266 267 267
245 247 248 249 249 252 252 250 250 246 246 248 249 247 250 250 251 252 252 253 254 254 255 256 258 258 259 260 262 266 268 266 266 266 265 265 264 265 265 265 266 266 266
252 250 250 250 252 252 250 249 249 247 247 248 248 248 248 250 251 251 252 252 253 253 253 255 256 256 257 259 261 267 268 271 266 266 265 264 264 264 264 264 264 264 264
Wind_Speed
5 4 5 5 6 6 5 5 6 5 6 7 8 9 9 9 7 6 5 7 8 9 8 6 8 6 6 5 4 4 6 6 12 11 6 5 4 6 6 7 9 10 10
3 3 3 4 4 5 5 5 6 6 6 7 7 8 9 10 10 10 11 10 11 11 10 10 11 7 7 6 5 7 7 8 8 15 12 8 7 7 6 7 8 8 9
4 3 1 2 2 3 4 5 5 5 6 6 7 7 10 10 10 10 10 12 12 11 12 11 12 10 11 8 7 8 7 7 8 9 11 7 6 3 6 6 6 8 7
4 3 2 1 2 3 4 4 5 5 6 7 8 9 9 10 10 11 11 12 12 13 14 13 14 12 12 11 10 10 10 9 9 9 10 10 8 5 4 4 5 5 7
4 3 2 2 2 3 4 4 6 7 8 8 11 10 10 10 9 12 13 15 15 16 15 15 14 15 22 21 12 12 12 10 9 10 11 9 9 4 8 5 9 6 9
5 4 3 3 3 5 6 8 9 9 9 10 10 11 12 10 21 24 21 15 16 16 16 15 15 16 19 26 27 28 23 14 15 14 13 13 14 8 7 9 8 6 8
5 3 4 4 4 5 6 7 8 10 10 10 11 11 12 12 22 25 26 15 16 15 16 15 15 12 17 15 20 27 25 26 28 18 19 19 17 12 8 10 12 11 13
3 4 3 3 4 6 7 7 9 8 9 10 11 12 12 11 24 26 27 16 14 15 15 16 16 16 15 17 17 17 18 18 18 14 17 19 18 17 13 12 11 14 12
3 3 2 2 3 5 6 8 8 8 9 10 10 11 12 13 24 26 23 14 14 15 15 15 15 16 21 25 17 16 17 17 19 30 34 36 37 34 27 13 13 12 13
5 3 1 1 3 5 6 7 6 6 10 9 11 11 13 15 22 25 21 11 13 12 13 15 21 22 26 26 17 15 17 15 15 15 16 23 27 25 33 23 16 15 12
4 2 2 3 4 5 5 6 7 8 10 9 11 11 13 14 15 24 25 14 12 12 11 11 11 25 28 27 27 15 17 18 19 16 15 15 15 17 15 17 21 17 15
3 2 3 3 5 4 4 6 5 6 8 9 10 10 9 12 18 20 25 27 25 15 13 12 13 28 30 31 26 29 32 27 12 11 11 13 14 15 14 16 18 17 17
3 3 4 5 5 5 4 8 6 5 5 7 8 9 10 10 10 24 27 28 28 19 14 20 34 34 34 26 26 29 26 13 13 13 14 15 14 14 17 18 17 18 19
4 5 4 4 5 5 5 6 5 5 6 7 9 10 10 10 9 10 12 13 20 18 19 16 20 26 30 26 18 18 12 12 13 14 14 14 14 14 15 16 13 13 12
4 4 4 4 5 5 6 5 6 7 8 9 9 10 11 11 12 24 23 14 13 17 20 11 12 11 11 11 9 11 12 12 13 14 14 13 13 14 16 16 16 11 13
4 3 3 3 4 4 5 6 12 16 18 20 21 16 9 21 28 28 29 30 29 28 11 9 10 10 11 12 12 14 13 13 12 12 12 13 14 14 15 15 12 16 15
5 4 3 4 4 4 3 4 8 12 17 12 14 19 22 21 25 27 27 26 24 19 6 9 9 10 11 12 12 12 15 13 12 10 12 13 12 13 21 16 18 14 10
5 6 3 4 4 3 3 5 4 5 8 11 11 17 18 22 24 23 23 18 11 9 6 9 10 10 11 12 12 13 13 13 10 9 11 11 12 14 11 7 7 6 7
4 4 4 3 3 4 3 5 4 5 6 7 11 13 13 21 20 19 19 4 8 9 9 10 10 10 11 12 12 13 14 14 10 9 9 11 11 11 10 8 10 13 13
4 7 5 3 3 3 4 4 4 4 5 6 7 8 11 8 9 10 8 8 8 8 9 10 10 10 11 11 12 12 13 15 8 8 9 10 10 9 10 10 6 6 8
3 3 5 3 3 3 3 4 4 3 4 5 7 7 18 6 8 8 9 9 9 9 10 10 10 10 10 11 11 12 12 12 11 11 9 10 10 10 9 7 4 4 5
3 4 3 4 3 3 3 3 3 3 4 5 7 7 17 5 5 7 8 8 9 9 9 10 10 10 10 11 11 11 12 12 11 10 9 8 6 4 3 2 1 3 5
4 4 3 3 3 4 3 3 3 3 4 4 5 6 6 5 6 7 7 8 9 9 9 9 10 10 10 11 11 9 10 11 10 9 9 6 5 4 4 3 3 4 5
4 4 4 4 3 3 3 3 3 4 4 5 5 5 6 6 7 8 7 7 8 9 9 9 10 13 13 12 11 12 7 8 8 9 10 6 5 5 5 4 4 5 6
3 3 4 4 3 3 3 3 4 4 4 4 5 4 5 6 7 7 7 7 8 9 10 10 9 13 14 19 18 19 17 9 10 11 7 7 6 7 5 5 5 6 7
4 4 4 3 3 4 3 3 4 4 4 5 5 5 5 6 7 7 7 7 8 9 10 9 11 14 17 13 16 19 20 15 11 13 8 6 6 5 6 7 9 6 8
Wind_Direction
94 85 81 66 48 35 29 10 360 346 350 350 344 341 341 340 337 329 324 313 319 312 311 292 286 279 286 282 266 243 253 254 267 281 267 242 240 238 245 224 225 224 228
161 131 102 80 46 19 1 352 348 340 336 331 329 332 330 328 328 329 324 318 311 306 299 294 294 298 278 266 262 257 246 245 257 274 278 270 230 234 229 228 230 227 230
181 167 76 22 356 318 311 318 321 317 310 310 315 314 319 318 317 315 304 302 298 293 296 291 290 289 288 287 274 275 263 256 250 259 270 267 265 226 244 236 220 230 232
182 172 140 29 355 332 324 330 335 329 322 331 328 322 319 316 311 303 298 294 292 291 291 286 285 283 281 284 277 277 278 271 265 258 263 264 256 241 235 230 243 211 233
170 140 97 24 19 12 11 357 342 338 336 330 325 322 321 318 311 316 312 303 297 291 285 281 280 280 282 282 284 283 277 272 273 271 268 264 252 223 232 230 243 232 223
140 124 66 53 38 22 360 345 338 334 331 327 323 318 317 315 316 312 308 301 300 296 294 294 293 290 286 285 283 282 276 272 270 272 271 264 266 253 234 237 239 224 252
115 93 60 48 19 358 343 335 330 325 322 319 316 316 311 309 310 312 311 302 298 295 293 294 294 292 296 294 291 284 283 283 277 277 272 268 271 259 253 235 233 234 241
96 74 73 36 359 344 336 326 316 313 314 310 309 305 301 305 310 310 308 302 299 296 293 291 291 291 289 290 287 282 279 273 271 274 273 273 270 277 253 251 249 243 248
128 133 102 21 324 322 309 301 302 307 306 300 297 306 301 299 305 306 310 303 296 295 292 290 292 290 288 288 282 278 273 273 276 276 277 276 274 271 260 261 243 241 241
160 158 163 242 249 265 277 294 293 291 294 299 299 299 293 291 296 303 310 296 292 290 288 284 283 286 290 292 291 287 286 289 290 293 279 270 270 268 267 250 250 244 236
137 161 222 253 252 262 270 279 289 290 292 294 292 292 287 282 284 302 306 299 291 285 280 282 280 286 291 290 288 282 276 276 275 277 274 275 276 261 252 247 246 239 237
157 215 253 262 283 280 258 276 272 276 281 291 294 292 284 283 286 296 298 298 295 294 289 281 279 282 283 280 277 271 274 280 288 290 284 277 275 277 262 244 243 242 241
179 245 268 279 279 275 275 285 289 272 270 289 292 292 289 288 285 287 288 292 288 284 277 277 284 288 285 292 296 289 287 276 268 265 265 264 265 275 270 265 237 234 241
210 246 259 251 269 261 267 269 272 278 283 284 283 283 285 292 293 298 284 280 278 282 281 277 272 274 272 276 277 277 273 269 264 264 262 263 267 261 258 271 241 216 222
218 243 244 241 248 263 254 260 267 261 263 277 285 294 302 306 303 305 315 312 303 300 309 317 310 308 306 298 277 268 261 259 256 258 258 261 262 263 254 258 239 219 215
221 241 231 246 251 269 278 288 289 294 300 303 305 308 307 310 312 317 314 316 322 330 327 321 307 305 302 303 303 296 282 258 248 251 257 261 260 260 263 260 251 218 214
214 236 240 261 256 256 283 295 307 316 319 318 321 323 318 321 324 321 332 329 342 336 326 311 305 307 305 301 298 291 291 279 267 254 259 263 267 270 272 227 240 227 217
221 240 219 242 241 242 249 265 269 286 308 314 322 319 324 330 327 342 342 350 329 336 312 310 307 307 305 301 301 297 293 283 267 258 257 260 269 278 257 254 234 221 212
219 233 226 229 241 248 264 268 260 273 278 288 309 316 317 321 334 344 347 323 321 320 319 315 310 308 307 306 304 305 302 296 262 257 257 264 268 280 292 270 238 215 206
226 242 231 222 247 255 255 257 272 273 285 289 297 299 309 323 343 336 333 325 322 317 315 313 313 310 306 307 309 310 316 322 285 257 259 259 261 268 278 285 236 194 197
218 228 232 240 238 236 231 239 267 269 277 286 286 295 316 7 318 318 317 322 321 318 316 316 315 313 312 314 317 320 321 321 325 328 292 267 263 260 256 247 206 213 206
213 225 217 222 235 242 237 249 261 267 272 285 292 302 326 315 303 305 309 313 313 314 317 314 313 313 314 316 317 322 323 323 325 325 324 325 322 329 326 326 146 156 146
213 219 231 242 224 239 242 257 263 258 272 275 283 298 306 301 301 299 301 307 315 315 317 317 317 318 321 320 322 314 322 322 322 321 324 329 336 343 359 36 41 88 118
194 210 225 234 223 224 242 269 266 268 270 276 283 286 292 292 295 296 298 307 309 312 314 316 316 319 321 326 326 332 316 330 331 324 331 334 344 355 15 29 43 88 104
202 221 225 228 225 239 268 258 264 264 267 268 278 275 279 286 294 296 300 304 306 310 309 313 313 319 322 322 323 336 339 351 350 346 340 352 12 20 32 47 57 71 82
222 225 230 222 234 244 241 257 263 264 267 274 266 271 273 286 289 290 297 304 310 309 305 307 309 313 319 319 324 332 345 4 12 1 354 360 15 26 43 55 63 70 78